{"data":{"norad_id":57921,"intl_designator":"2023-147J","name":"STARLINK-30492","alt_names":[],"object_type":"PAYLOAD","status":"ACTIVE","operator":null,"country":"US","launch_date":"2023-09-24","launch_site_code":"AFETR","launch_vehicle":null,"mission":null,"orbit_class":"UNKNOWN","rcs_meters":null,"size_class":null,"mass_kg":null,"dimensions":null,"purposes":["comms"],"wikipedia_slug":null,"has_3d_model":false,"image_url":null,"decayed_at":null,"tle_current":{"epoch":"2026-05-24T14:02:46.681728Z","epoch_age_seconds":111698,"freshness":"FRESH","line1":"1 57921U 23147J   26144.58526252  .00002616  00000+0  10452-3 0  9992","line2":"2 57921  43.0039 256.7286 0002118 268.0509  92.0100 15.27597478148205","mean_motion":15.27597478,"eccentricity":0.0002118,"inclination_deg":43.0039,"raan_deg":256.7286,"arg_perigee_deg":268.0509,"mean_anomaly_deg":92.01,"bstar":0.00010452,"rev_number":14820,"period_min":94.26567016105,"perigee_km":481.54357298837,"apogee_km":484.44994924958,"semimajor_km":6861.133761119,"source":"CELESTRAK","updated_at":"2026-05-25T13:38:18.457834Z"}}}